Location: Pinawa
(50.1500°N, 95.8830°W)
Time: 15:00:21
(UTC-05:00)

ISS - All Passes

Search period start: 20 September 2017 00:00
Search period end: 30 September 2017 00:00
Orbit: 402 x 407 km, 51.6° (Epoch: 21 September)

Date Brightness Start Highest point End Pass type
(mag) Time Alt. Az. Time Alt. Az. Time Alt. Az.
20 Sep - 00:04:48 10° SW 00:07:57 45° SSE 00:11:08 10° E night (unlit)
20 Sep - 01:41:05 10° W 01:44:24 70° N 01:47:41 10° ENE night (unlit)
20 Sep - 03:17:43 10° WNW 03:21:01 79° NNE 03:24:19 10° E night (unlit)
20 Sep - 04:54:19 10° W 04:57:21 34° SSW 05:00:22 10° SE visible
20 Sep - 23:12:51 10° SSW 23:15:46 30° SSE 23:18:42 10° E night (unlit)
21 Sep - 00:48:44 10° WSW 00:52:02 84° NNW 00:55:21 10° ENE night (unlit)
21 Sep - 02:25:22 10° WNW 02:28:40 68° N 02:31:58 10° E night (unlit)
21 Sep - 04:01:55 10° WNW 04:05:08 51° SSW 04:08:21 10° SE night (unlit)
21 Sep - 05:39:43 10° WSW 05:41:01 12° SW 05:42:18 10° SSW visible
21 Sep - 22:21:11 10° S 22:23:37 19° SE 22:26:03 10° E night (unlit)
21 Sep - 23:56:26 10° WSW 23:59:43 75° SSE 00:03:01 10° ENE night (unlit)
22 Sep - 01:33:01 10° W 01:36:17 65° N 01:39:34 10° E night (unlit)
22 Sep - 03:09:33 10° WNW 03:12:51 74° SSW 03:16:08 10° ESE night (unlit)
22 Sep - 04:46:32 10° W 04:48:56 19° SW 04:51:21 10° S night (unlit)
22 Sep - 21:30:11 10° SSE 21:31:32 12° SE 21:32:53 10° ESE night (unlit)
22 Sep - 23:04:13 10° SW 23:07:25 52° SSE 23:10:39 10° ENE night (unlit)
23 Sep - 00:40:37 10° W 00:43:54 68° N 00:47:11 10° ENE night (unlit)
23 Sep - 02:17:12 10° WNW 02:20:31 85° NNE 02:23:49 10° ESE night (unlit)
23 Sep - 03:53:52 10° W 03:56:47 29° SSW 03:59:41 10° SSE night (unlit)
23 Sep - 22:12:09 10° SW 22:15:10 34° SSE 22:18:13 10° E night (unlit)
23 Sep - 23:48:12 10° W 23:51:30 78° NNW 23:54:49 10° ENE night (unlit)
24 Sep - 01:24:50 10° WNW 01:28:08 71° N 01:31:26 10° E night (unlit)
24 Sep - 03:01:23 10° W 03:04:33 44° SSW 03:07:43 10° SE night (unlit)
24 Sep - 21:20:21 10° SSW 21:22:58 22° SE 21:25:37 10° E visible
24 Sep - 22:55:51 10° WSW 22:59:08 83° SSE 23:02:26 10° ENE night (unlit)
25 Sep - 00:32:26 10° W 00:35:43 65° N 00:39:00 10° E night (unlit)
25 Sep - 02:08:59 10° WNW 02:12:15 66° SSW 02:15:31 10° ESE night (unlit)
25 Sep - 03:46:08 10° W 03:48:16 16° SW 03:50:25 10° S night (unlit)
25 Sep - 20:28:59 10° S 20:30:50 14° SE 20:32:40 10° ESE visible
25 Sep - 22:03:33 10° WSW 22:06:47 60° SSE 22:10:02 10° ENE visible
25 Sep - 23:40:01 10° W 23:43:17 66° N 23:46:35 10° E night (unlit)
26 Sep - 01:16:36 10° WNW 01:19:53 89° SW 01:23:12 10° ESE night (unlit)
26 Sep - 02:53:19 10° W 02:56:06 25° SW 02:58:52 10° SSE night (unlit)
26 Sep - 21:11:24 10° SW 21:14:29 40° SSE 21:17:35 10° E visible
26 Sep - 22:47:34 10° W 22:50:51 74° N 22:54:09 10° ENE visible
27 Sep - 00:24:11 10° WNW 00:27:29 75° N 00:30:47 10° E night (unlit)
27 Sep - 02:00:45 10° W 02:03:52 38° SSW 02:06:56 10° SE night (unlit)
27 Sep - 20:19:27 10° SSW 20:22:13 26° SE 20:25:01 10° E visible
27 Sep - 21:55:09 10° WSW 21:58:26 90° WNW 22:01:45 10° ENE visible
27 Sep - 23:31:46 10° W 23:35:02 66° N 23:38:20 10° E night (unlit)
28 Sep - 01:08:17 10° WNW 01:11:32 58° SSW 01:14:47 10° SE night (unlit)
28 Sep - 02:45:43 10° WSW 02:47:28 14° SW 02:49:15 10° S night (unlit)
28 Sep - 19:27:50 10° S 19:30:01 17° SE 19:32:12 10° E daylight
28 Sep - 21:02:47 10° WSW 21:06:02 67° SSE 21:09:19 10° ENE visible
28 Sep - 22:39:18 10° W 22:42:34 65° N 22:45:51 10° E visible
29 Sep - 00:15:51 10° WNW 00:19:09 81° SSW 00:22:27 10° ESE night (unlit)
29 Sep - 01:52:41 10° W 01:55:18 22° SW 01:57:53 10° SSE night (unlit)
29 Sep - 18:37:33 10° SE 18:37:52 10° SE 18:38:10 10° SE daylight
29 Sep - 20:10:31 10° SW 20:13:40 46° SSE 20:16:51 10° ENE visible
29 Sep - 21:46:49 10° W 21:50:06 70° N 21:53:23 10° ENE visible
29 Sep - 23:23:25 10° WNW 23:26:43 79° NNE 23:30:01 10° E night (unlit)
